Skip to main content

São Jorge / Pico do Areeiro (DROTRH)

ID 11217510 · 38.6435, -28.0591 map

Latest reading · 2026-05-09 17:00 (Europe/Lisbon)

Temperature
7.6 °C
Humidity
100 %
Pressure
Precipitation
3.8 mm
Radiation
579 W/m²
Wind speed
22.3 km/h
Wind direction
NW · North-west

24-hour history

Time (Europe/Lisbon) Temp Humidity Pressure Rain Wind Dir
2026-05-09 17:00 7.6 °C 100 % 3.8 mm 22.3 km/h NW
2026-05-09 16:00 7.7 °C 100 % 0.6 mm 23.8 km/h NW
2026-05-09 15:00 7.1 °C 100 % 1.0 mm 24.8 km/h NW
2026-05-09 14:00 6.4 °C 100 % 0.3 mm 20.9 km/h NW
2026-05-09 13:00 6.2 °C 99 % 0.5 mm 25.6 km/h W
2026-05-09 12:00 5.8 °C 96 % 0.3 mm 22.7 km/h NW
2026-05-09 11:00 5.6 °C 88 % 0.0 mm 23.0 km/h SW
2026-05-09 10:00 5.0 °C 100 % 0.0 mm 21.2 km/h W
2026-05-09 09:00 4.9 °C 100 % 0.1 mm 21.6 km/h NW
2026-05-09 08:00 5.1 °C 100 % 0.0 mm 20.2 km/h NW
2026-05-09 07:00 5.3 °C 100 % 0.1 mm 20.5 km/h NW
2026-05-09 06:00 5.4 °C 100 % 0.1 mm 22.0 km/h NW
2026-05-09 05:00 5.5 °C 100 % 0.3 mm 22.0 km/h NW
2026-05-09 04:00 5.0 °C 100 % 0.0 mm 18.7 km/h NW
2026-05-09 03:00 4.6 °C 100 % 0.0 mm 19.8 km/h NW
2026-05-09 02:00 6.0 °C 100 % 0.1 mm 22.0 km/h NW
2026-05-09 01:00 6.7 °C 100 % 2.6 mm 22.3 km/h W
2026-05-09 00:00 7.1 °C 100 % 0.4 mm 23.8 km/h NW
2026-05-08 23:00 7.4 °C 100 % 0.8 mm 19.4 km/h NW
2026-05-08 22:00 7.6 °C 100 % 0.4 mm 21.6 km/h NW
2026-05-08 21:00 8.0 °C 100 % 0.1 mm 21.2 km/h W
2026-05-08 20:00 8.3 °C 100 % 0.3 mm 22.3 km/h W